Location: Campo Claro
(10.4907°N, 66.8285°W)
Time: 14:35:00
(UTC+00:00)

Cosmos 1666 Rocket - Visible Passes

Search period start: 25 June 2022 00:00
Search period end: 05 July 2022 00:00
Orbit: 604 x 631 km, 82.5° (Epoch: 24 June)

Date Brightness Start Highest point End Pass type
(mag) Time Alt. Az. Time Alt. Az. Time Alt. Az.
25 Jun 4.4 09:42:15 10° SSW 09:46:06 31° W 09:49:59 10° NNW visible
26 Jun 5.9 08:22:06 10° SE 08:25:29 22° E 08:28:53 10° NE visible
27 Jun 4.4 08:38:27 12° SSE 08:42:20 49° E 08:46:35 10° NNE visible
28 Jun 3.4 08:56:09 19° SSW 08:59:14 70° W 09:03:37 10° N visible
29 Jun 6.6 07:38:29 10° E 07:38:43 10° E 07:38:59 10° E visible
29 Jun 4.4 09:13:50 19° SW 09:16:11 30° W 09:20:03 10° NNW visible
30 Jun 5.6 07:54:17 20° ESE 07:55:33 23° E 07:59:01 10° NE visible
30 Jun 5.3 09:31:27 12° WSW 09:33:09 14° W 09:35:29 10° NW visible
01 Jul 4.2 08:11:51 47° ESE 08:12:26 51° E 08:16:42 10° NNE visible
02 Jul 3.4 08:29:24 69° WNW 08:29:24 69° WNW 08:33:43 10° N visible
03 Jul 4.6 08:46:53 28° WNW 08:46:53 28° WNW 08:50:08 10° NNW visible
04 Jul 6.1 07:27:11 19° ENE 07:27:11 19° ENE 07:29:09 10° NE visible
04 Jul 5.6 09:04:21 13° WNW 09:04:21 13° WNW 09:05:31 10° NW visible
